SCP
0 0 0 0 0 0 0 0 0 0 0 0 0 0 0 0 0 0 0 0 0 0 0 0 0 0 0 0 0 0 0 0 0 0 0 0 0 0 0 0 0 0 0 0
0 0 0 0 0 0 0 0 0 0 0 0 0 0 0 0 0 0 0 0 0 0 0 0 0 0 0 0 0 0 0 0 0 0 0 0 0 0 0 0 0 0 0 0
0 0 0 0 0 0 0 0 0 0 0 0 0 0 0 0 0 0 0 0 0 0 0 0 0 0 0 0 0 0 0 0 0 0 0 0 0 0 0 0 0 0 0 0
0 0 0 0 0 0 0 0 0 0 0 0 0 0 0 0 0 0 0 0 0 0 0 0 0 0 0 0 0 0 0 0 0 0 0 0 0 0 0 0 0 0 0 0
0 0 0 0 0 0 0 0 0 0 0 0 0 0 0 0 0 0 0 0 0 0 0 0 0 0 0 0 0 0 0 0 0 0 0 0 0 0 0 0 0 0 0 0
0 0 0 0 0 0 0 0 0 0 0 0 0 0 0 0 0 0 0 0 0 0 0 0 0 0 0 0 0 0 0 0 0 0 0 0 0 0 0 0 0 0 0 0
0 0 0 0 0 0 0 0 0 0 0 0 0 0 0 0 0 0 0 0 0 0 0 0 0 0 0 0 0 0 0 0 0 0 0 0 0 0 0 0 0 0 0 0
0 0 0 0 0 0 0 0 0 0 0 0 0 0 0 0 0 0 0 0 0 0 0 0 0 0 0 0 0 0 0 0 0 0 0 0 0 0 0 0 0 0 0 0
0 0 0 0 0 0 0 0 0 0 0 0 0 0 0 0 0 0 0 0 0 0 0 0 0 0 0 0 0 0 0 0 0 0 0 0 0 0 0 0 0 0 0 0
0 0 0 0 0 0 0 0 0 0 0 0 0 0 0 0 0 0 0 0 0 0 0 0 0 0 0 0 0 0 0 0 0 0 0 0 0 0 0 0 0 0 0 0
0 0 0 0 0 0 0 0 0 0 0 0 0 0 0 0 0 0 0 0 0 0 0 0 0 0 0 0 0 0 0 0 0 0 0 0 0 0 0 0 0 0 0 0
0 0 0 0 0 0 0 0 0 0 0 0 0 0 0 0 0 0 0 0 0 0 0 0 0 0 0 0 0 0 0 0 0 0 0 0 0 0 0 0 0 0 0 0
0 0 0 0 0 0 0 0 0 0 0 0 0 0 0 0 0 0 0 0 0 0 0 0 0 0 0 0 0 0 0 0 0 0 0 0 0 0 0 0 0 0 0 0
0 0 0 0 0 0 0 0 0 0 0 0 0 0 0 0 0 0 0 0 0 0 0 0 0 0 0 0 0 0 0 0 0 0 0 0 0 0 0 0 0 0 0 0
0 0 0 0 0 0 0 0 0 0 0 0 0 0 0 0 0 0 0 0 0 0 0 0 0 0 0 0 0 0 0 0 0 0 0 0 0 0 0 0 0 0 0 0
0 0 0 0 0 0 0 0 0 0 0 0 0 0 0 0 0 0 0 0 0 0 0 0 0 0 0 0 0 0 0 0 0 0 0 0 0 0 0 0 0 0 0 0
0 0 0 0 0 0 0 0 0 0 0 0 0 0 0 0 0 0 0 0 0 0 0 0 0 0 0 0 0 0 0 0 0 0 0 0 0 0 0 0 0 0 0 0
0 0 0 0 0 0 0 0 0 0 0 0 0 0 0 0 0 0 0 0 0 0 0 0 0 0 0 0 0 0 0 0 0 0 0 0 0 0 0 0 0 0 0 0
0 0 0 0 0 0 0 0 0 0 0 0 0 0 0 0 0 0 0 0 0 0 0 0 0 0 0 0 0 0 0 0 0 0 0 0 0 0 0 0 0 0 0 0
0 0 0 0 0 0 0 0 0 0 0 0 0 0 0 0 0 0 0 0 0 0 0 0 0 0 0 0 0 0 0 0 0 0 0 0 0 0 0 0 0 0 0 0
0 0 0 0 0 0 0 0 0 0 0 0 0 0 0 0 0 0 0 0 0 0 0 0 0 0 0 0 0 0 0 0 0 0 0 0 0 0 0 0 0 0 0 0
0 0 0 0 0 0 0 0 0 0 0 0 0 0 0 0 0 0 0 0 0 0 0 0 0 0 0 0 0 0 0 0 0 0 0 0 0 0 0 0 0 0 0 0
0 0 0 0 0 0 0 0 0 0 0 0 0 0 0 0 0 0 0 0 0 0 0 0 0 0 0 0 0 0 0 0 0 0 0 0 0 0 0 0 0 0 0 0
0 0 0 0 0 0 0 0 0 0 0 0 0 0 0 0 0 0 0 0 0 0 0 0 0 0 0 0 0 0 0 0 0 0 0 0 0 0 0 0 0 0 0 0
0 0 0 0 0 0 0 0 0 0 0 0 0 0 0 0 0 0 0 0 0 0 0 0 0 0 0 0 0 0 0 0 0 0 0 0 0 0 0 0 0 0 0 0
0 0 0 0 0 0 0 0 0 0 0 0 0 0 0 0 0 0 0 0 0 0 0 0 0 0 0 0 0 0 0 0 0 0 0 0 0 0 0 0 0 0 0 0
0 0 0 0 0 0 0 0 0 0 0 0 0 0 0 0 0 0 0 0 0 0 0 0 0 0 0 0 0 0 0 0 0 0 0 0 0 0 0 0 0 0 0 0
Wind_Speed
7 5 9 10 14 15 16 13 10 11 12 12 7 5 3 2 2 2 1 1 1 2 3 3 4 5 5 5 5 4 4 4 4 4 4 4 4 4 4 4 5 5 5 6
7 6 6 9 13 15 17 16 14 11 12 8 4 2 2 2 2 1 1 1 3 3 4 5 5 6 6 6 6 5 4 5 5 5 4 4 4 4 4 4 4 4 5 5
7 5 4 11 14 16 15 14 14 15 14 7 6 5 4 2 1 2 2 2 3 4 4 5 5 6 6 6 6 5 5 5 5 5 5 5 5 4 4 4 4 4 4 4
4 5 13 10 8 12 14 14 12 10 8 8 7 4 2 3 3 1 2 2 3 4 5 5 5 5 6 6 6 5 5 5 5 6 6 5 5 4 4 4 4 4 4 4
5 7 7 6 7 10 12 12 9 10 7 5 4 2 2 2 2 2 1 1 2 3 4 4 5 6 6 6 6 6 6 6 6 6 6 5 5 5 5 4 4 4 3 4
5 7 10 8 6 5 6 10 6 6 6 5 4 5 4 1 3 3 3 4 4 4 4 4 6 6 5 6 6 6 7 7 7 6 6 6 6 5 4 3 4 3 3 3
8 7 8 4 4 7 10 9 4 5 5 4 3 2 1 3 3 4 4 4 5 5 5 5 7 6 6 6 6 7 8 7 7 6 6 6 5 4 4 3 3 3 3 3
8 8 10 3 6 8 5 2 3 3 2 2 2 3 3 3 3 4 4 5 6 5 5 6 7 7 7 7 8 8 8 8 7 6 5 5 5 4 3 3 3 3 3 4
8 7 1 2 4 3 3 4 2 3 3 3 2 2 2 2 3 3 4 5 5 5 6 6 6 6 7 8 8 8 8 8 7 6 5 4 4 4 4 3 2 3 2 3
3 2 3 4 4 5 5 5 5 5 4 3 3 2 2 2 3 4 4 5 5 5 5 6 6 7 7 8 8 7 8 8 7 6 5 4 3 3 3 3 3 3 3 3
4 3 4 2 3 5 6 7 7 6 5 4 3 2 2 2 3 3 4 5 4 5 5 7 7 7 7 8 8 7 7 7 6 5 5 4 3 2 3 2 2 3 3 3
4 5 4 4 4 4 5 5 4 4 4 5 4 3 3 3 3 4 4 4 5 5 6 7 7 7 7 8 7 7 6 6 5 5 4 4 4 3 4 3 4 4 4 4
3 3 4 5 5 6 4 4 4 4 3 3 4 4 3 3 3 4 4 5 5 6 6 7 7 8 8 8 7 6 6 6 5 5 4 4 3 3 4 5 5 5 5 5
5 3 4 3 3 5 5 5 5 4 4 4 3 3 3 3 4 4 5 5 5 6 6 6 7 7 8 8 7 7 6 6 5 4 4 4 3 3 3 4 5 4 5 6
6 5 3 4 5 5 4 3 4 3 3 3 3 3 3 3 4 4 5 5 5 5 5 6 7 8 8 8 7 7 6 5 4 4 4 3 3 3 3 3 3 4 4 5
2 4 5 4 4 3 3 3 3 3 3 3 3 3 3 3 4 4 4 4 4 5 6 6 7 8 8 7 7 5 4 6 5 4 4 3 3 3 3 3 3 3 4 4
2 2 2 2 2 2 2 2 2 2 3 3 3 3 3 3 3 4 4 4 4 4 5 5 7 8 7 7 6 5 4 4 5 4 3 3 3 3 3 3 3 3 3 4
3 2 1 1 0 1 2 2 2 2 2 3 3 3 3 3 4 5 5 5 5 5 5 5 6 6 6 6 5 4 4 4 4 3 3 3 3 3 3 3 3 3 3 4
2 2 2 1 1 1 1 2 2 2 2 3 3 3 3 3 4 4 4 4 5 6 6 6 9 7 7 7 6 4 4 4 4 3 3 4 3 3 3 3 3 3 3 3
1 1 1 1 1 0 1 2 2 2 2 2 2 3 3 4 4 4 3 3 3 4 5 6 6 6 6 6 7 4 4 4 4 4 3 3 3 3 3 3 3 3 3 3
1 1 0 0 1 1 1 1 1 2 2 2 2 3 4 4 4 3 3 3 3 3 4 6 4 4 5 5 5 4 4 4 4 4 4 3 3 3 3 3 3 3 3 3
1 1 1 1 1 2 2 1 1 2 2 2 2 3 3 4 4 3 3 3 4 5 4 4 4 5 6 5 4 4 4 4 3 3 3 3 3 3 3 3 3 3 3 3
2 2 2 2 2 2 2 2 2 2 2 3 3 3 3 4 3 3 4 3 3 5 5 4 6 8 7 4 3 3 3 4 4 4 3 3 3 3 3 3 3 3 3 3
2 2 2 1 1 1 3 3 2 2 3 3 3 3 3 3 3 2 3 4 5 6 4 6 8 8 7 3 3 3 3 3 3 4 4 4 3 3 3 3 3 3 3 4
2 2 2 2 2 3 3 2 2 2 2 3 3 3 3 3 3 3 3 4 6 6 5 6 8 7 4 3 3 3 3 3 3 4 3 3 4 4 3 3 3 4 4 4
2 2 3 3 3 2 2 1 2 2 2 2 3 2 2 2 3 3 3 4 5 5 4 4 4 4 3 3 3 4 4 4 4 4 4 4 4 4 4 4 5 4 4 4
2 2 2 2 2 2 2 2 3 3 2 3 3 3 2 2 2 3 4 3 3 3 3 3 3 3 3 3 4 4 4 4 4 4 4 4 4 4 4 5 4 4 4 4
Wind_Direction
244 221 185 197 205 209 215 218 221 231 233 233 223 210 188 150 126 99 73 43 19 2 353 348 346 344 343 337 334 329 324 318 309 309 305 300 293 283 275 264 256 251 248 245
237 242 227 227 215 212 217 220 226 236 246 242 237 223 204 180 151 137 79 16 9 4 359 353 350 345 341 336 337 338 333 322 320 318 315 313 309 303 294 281 271 259 252 249
216 211 223 237 220 217 219 219 217 228 236 227 226 224 222 205 167 115 73 26 9 3 356 349 348 343 339 336 339 340 333 328 327 324 320 316 313 310 298 290 284 272 262 254
173 175 224 234 215 220 227 229 225 227 226 222 222 210 145 110 119 88 40 24 5 355 348 347 348 345 340 339 338 333 330 329 329 325 317 315 314 304 298 296 289 278 271 261
185 211 243 251 214 205 214 232 223 224 223 225 216 190 150 81 84 87 29 15 8 356 340 338 343 343 339 335 335 334 331 329 324 317 310 309 306 299 297 295 289 285 282 273
191 203 223 229 203 190 193 240 223 203 203 213 195 211 219 103 77 61 39 26 8 356 350 350 350 350 341 330 332 330 325 320 318 313 306 301 296 294 292 288 285 291 290 284
206 221 241 233 177 147 188 223 181 177 190 192 194 209 111 72 60 54 38 20 7 359 354 350 352 349 333 325 323 319 315 313 312 312 306 298 297 294 292 289 290 287 289 295
196 213 233 204 158 179 196 116 108 128 136 129 114 94 83 69 52 37 25 17 10 358 348 348 351 344 326 319 320 320 317 313 310 311 308 304 303 304 301 293 290 286 287 296
191 204 151 110 124 106 98 115 88 85 80 101 110 94 63 46 36 23 17 8 2 350 337 341 347 342 322 319 324 322 317 311 310 314 313 310 308 307 306 298 286 287 285 291
160 175 136 109 87 66 75 89 77 72 72 75 84 69 43 27 14 6 3 0 353 345 336 335 341 340 327 324 325 317 311 311 315 318 317 315 306 299 294 290 285 285 286 289
174 142 122 121 94 89 85 80 72 58 51 53 61 47 28 6 358 354 353 352 349 341 331 328 333 331 329 327 324 317 313 313 316 314 312 315 311 312 303 297 272 273 278 272
190 169 167 149 108 94 94 81 75 73 55 39 38 29 16 2 359 353 347 346 343 338 332 328 327 325 327 326 322 317 314 316 315 312 311 309 312 329 356 333 347 330 298 281
67 54 87 99 79 67 73 65 60 59 59 45 30 24 10 352 353 350 344 347 343 334 330 325 322 322 325 324 322 316 311 310 309 310 310 311 313 313 320 342 356 358 352 337
39 68 103 91 73 54 62 64 63 61 54 48 35 21 8 353 346 343 340 341 337 328 327 324 321 322 327 327 323 317 312 311 308 308 310 311 312 312 310 314 323 333 352 360
29 35 91 92 82 69 61 67 70 60 46 36 29 20 5 345 331 326 327 332 331 330 331 328 324 323 328 329 326 322 319 318 317 317 320 320 322 325 325 324 323 327 337 349
39 64 78 87 82 66 54 47 49 28 18 8 5 358 344 324 310 310 320 335 336 326 322 321 318 319 323 327 327 321 318 324 325 323 325 328 330 330 328 328 331 336 338 337
102 97 78 80 56 42 38 30 17 355 347 338 330 328 330 329 325 328 329 329 318 307 310 316 315 318 324 328 326 321 321 324 330 328 328 327 328 327 327 329 330 331 331 345
58 76 77 112 107 13 1 359 350 338 322 315 320 328 338 337 324 319 321 326 327 322 321 320 317 325 331 330 327 322 323 328 334 334 333 335 334 333 333 331 330 330 332 345
69 76 67 62 53 37 323 317 319 319 320 324 328 325 318 311 307 311 321 331 330 323 322 326 333 337 329 329 334 327 328 333 335 335 332 334 337 337 336 335 334 337 337 342
91 83 79 57 36 353 296 305 312 316 320 324 322 320 319 316 315 314 313 304 291 290 307 319 323 323 327 330 337 330 333 335 334 331 331 333 334 333 336 336 333 335 337 339
162 143 120 301 306 281 266 278 290 299 311 314 301 297 298 303 306 304 308 305 310 318 320 320 320 320 325 330 333 331 333 333 331 328 328 330 330 332 334 335 333 333 333 335
186 190 221 243 272 291 283 260 258 273 288 290 286 288 298 305 310 301 270 265 295 323 324 318 317 322 329 331 331 331 330 329 326 324 324 325 325 324 324 326 324 325 325 326
194 207 220 232 251 277 294 277 257 254 262 267 272 278 281 287 292 292 296 301 313 319 320 311 316 323 331 336 330 327 326 324 322 320 318 316 313 312 314 317 317 317 317 319
195 207 219 226 223 260 276 275 261 253 255 260 257 254 261 281 285 261 267 303 315 315 312 310 318 328 336 332 323 320 318 316 315 315 314 315 313 310 309 309 308 308 307 307
203 211 211 209 225 241 250 263 271 267 267 269 269 259 245 241 257 285 301 302 307 312 309 314 321 328 330 319 315 312 310 307 306 307 307 308 311 311 306 302 300 300 301 300
200 213 220 224 229 235 238 243 257 262 264 280 285 272 265 264 269 280 286 290 295 299 300 303 309 315 314 312 310 308 306 308 309 307 304 304 304 306 306 309 307 303 302 301
219 225 234 252 243 226 227 235 247 255 249 253 273 275 278 281 280 284 289 293 298 300 300 300 301 302 303 303 303 303 303 303 302 302 302 301 300 300 300 300 298 297 297 296